Location: Alexandria
(38.8050°N, 77.0470°W)
Time: 05:03:24
(UTC-05:00)

KAITUO 1B - Visible Passes

Search period start: 20 February 2018 00:00
Search period end: 02 March 2018 00:00
Orbit: 498 x 522 km, 97.5° (Epoch: 19 February)

Date Brightness Start Highest point End Pass type
(mag) Time Alt. Az. Time Alt. Az. Time Alt. Az.
20 Feb ? 06:11:55 10° NNE 06:15:34 52° E 06:19:12 10° S visible
20 Feb ? 18:24:26 10° SSW 18:27:25 24° W 18:30:27 10° NW visible
21 Feb ? 05:55:44 10° NNE 05:59:05 31° E 06:02:26 10° SSE visible
22 Feb ? 05:39:48 10° NE 05:42:35 20° E 05:45:21 10° SE visible
23 Feb ? 05:24:24 10° ENE 05:26:02 12° E 05:27:40 10° ESE visible
24 Feb ? 18:55:05 10° WSW 18:55:49 10° W 18:56:33 10° W visible
25 Feb ? 18:36:48 10° SW 18:39:15 17° W 18:41:42 10° NW visible
26 Feb ? 06:07:16 10° NNE 06:10:52 45° E 06:14:29 10° S visible
26 Feb ? 18:19:34 10° SSW 18:22:43 27° W 18:25:52 10° NW visible
27 Feb ? 05:51:08 10° NE 05:54:23 27° E 05:57:37 10° SSE visible
28 Feb ? 05:35:16 10° NE 05:37:51 17° E 05:40:25 10° SE visible
01 Mar ? 05:20:14 10° ENE 05:21:16 11° E 05:22:18 10° ESE visible
